Location: Krakow
(50.0212°N, 19.9423°E)
Time: 01:04:36
(UTC+02:00)

NOAA 15 - Pass Details

Date: 16 September 2024
Orbit: 795 x 810 km, 98.6° (Epoch: 10 October)

Event Time Altitude Azimuth Distance (km) Brightness Sun altitude
Rises 20:23:38 0° 200° (SSW) 3,290 7.8 -15.3°
Reaches altitude 10° 20:26:22 10° 214° (SSW) 2,364 7.2 -15.7°
Maximum altitude 20:30:35 25° 268° (W) 1,582 6.9 -16.3°
Drops below altitude 10° 20:34:50 10° 322° (NW) 2,376 8.0 -16.9°
Sets 20:37:36 0° 336° (NNW) 3,311 8.6 -17.3°
